TimeCDT,TemperatureF,Dew PointF,Humidity,Sea Level PressureIn,VisibilityMPH,Wind Direction,Wind SpeedMPH,Gust SpeedMPH,PrecipitationIn,Events,Conditions,WindDirDegrees,DateUTC
12:15 AM,87.8,59.0,38,30.00,10.0,Calm,Calm,-,N/A,,Clear,0,2013-08-30 05:15:00
12:35 AM,87.8,59.0,38,29.99,10.0,Calm,Calm,-,N/A,,Clear,0,2013-08-30 05:35:00
12:55 AM,86.0,59.0,40,30.00,10.0,SSE,3.5,-,N/A,,Clear,160,2013-08-30 05:55:00
1:15 AM,86.0,59.0,40,30.00,10.0,SSE,3.5,-,N/A,,Clear,160,2013-08-30 06:15:00
1:35 AM,86.0,60.8,43,29.99,10.0,Calm,Calm,-,N/A,,Clear,0,2013-08-30 06:35:00
1:55 AM,86.0,60.8,43,29.99,10.0,SSW,3.5,-,N/A,,Clear,200,2013-08-30 06:55:00
2:15 AM,86.0,60.8,43,29.99,10.0,Calm,Calm,-,N/A,,Clear,0,2013-08-30 07:15:00
2:35 AM,84.2,60.8,45,29.99,10.0,SW,3.5,-,N/A,,Clear,230,2013-08-30 07:35:00
2:55 AM,80.6,60.8,51,29.99,10.0,SSE,3.5,-,N/A,,Clear,160,2013-08-30 07:55:00
3:15 AM,80.6,60.8,51,29.99,10.0,SE,3.5,-,N/A,,Clear,140,2013-08-30 08:15:00
3:35 AM,80.6,60.8,51,29.99,10.0,SE,3.5,-,N/A,,Clear,140,2013-08-30 08:35:00
3:55 AM,80.6,62.6,54,29.99,10.0,SSE,4.6,-,N/A,,Clear,160,2013-08-30 08:55:00
4:15 AM,80.6,62.6,54,29.99,10.0,SSE,5.8,-,N/A,,Clear,160,2013-08-30 09:15:00
4:35 AM,80.6,60.8,51,29.99,10.0,SSE,6.9,-,N/A,,Clear,160,2013-08-30 09:35:00
4:55 AM,80.6,60.8,51,29.99,10.0,SSE,4.6,-,N/A,,Clear,160,2013-08-30 09:55:00
5:15 AM,80.6,62.6,54,29.99,10.0,SSE,4.6,-,N/A,,Clear,160,2013-08-30 10:15:00
5:35 AM,80.6,62.6,54,30.00,10.0,Calm,Calm,-,N/A,,Clear,0,2013-08-30 10:35:00
5:55 AM,80.6,62.6,54,30.00,10.0,South,4.6,-,N/A,,Clear,190,2013-08-30 10:55:00
6:15 AM,80.6,62.6,54,30.00,10.0,Calm,Calm,-,N/A,,Clear,0,2013-08-30 11:15:00
6:35 AM,80.6,62.6,54,30.00,10.0,Calm,Calm,-,N/A,,Clear,0,2013-08-30 11:35:00
6:50 AM,80.6,64.4,58,30.01,10.0,South,6.9,-,N/A,,Clear,180,2013-08-30 11:50:00
6:55 AM,78.8,62.6,57,30.01,10.0,South,3.5,-,N/A,,Clear,190,2013-08-30 11:55:00
7:50 AM,80.6,64.4,58,30.02,10.0,Calm,Calm,-,N/A,,Clear,0,2013-08-30 12:50:00
8:50 AM,82.4,64.4,54,30.04,10.0,ESE,4.6,-,N/A,,Clear,120,2013-08-30 13:50:00
9:50 AM,87.8,64.4,46,30.04,10.0,SSW,6.9,-,N/A,,Clear,200,2013-08-30 14:50:00
10:50 AM,91.4,62.6,38,30.03,10.0,South,4.6,-,N/A,,Clear,190,2013-08-30 15:50:00
11:50 AM,96.8,60.8,30,30.02,10.0,Calm,Calm,-,N/A,,Clear,0,2013-08-30 16:50:00
1:50 PM,98.6,57.2,25,29.98,10.0,Calm,Calm,-,N/A,,Clear,0,2013-08-30 18:50:00
2:50 PM,100.4,57.2,24,29.95,10.0,East,6.9,-,N/A,,Clear,100,2013-08-30 19:50:00
3:50 PM,100.4,57.2,24,29.92,10.0,Calm,Calm,-,N/A,,Clear,0,2013-08-30 20:50:00
4:50 PM,100.4,55.4,22,29.91,10.0,Calm,Calm,-,N/A,,Clear,0,2013-08-30 21:50:00
5:50 PM,100.4,55.4,22,29.89,10.0,NNE,6.9,-,N/A,,Clear,20,2013-08-30 22:50:00
6:50 PM,98.6,55.4,24,29.89,10.0,ENE,8.1,-,N/A,,Clear,70,2013-08-30 23:50:00
7:50 PM,96.8,57.2,27,29.89,10.0,East,4.6,-,N/A,,Clear,80,2013-08-31 00:50:00
8:50 PM,93.2,57.2,30,29.90,10.0,Calm,Calm,-,N/A,,Clear,0,2013-08-31 01:50:00
9:15 PM,91.4,55.4,29,29.90,10.0,ESE,3.5,-,N/A,,Clear,120,2013-08-31 02:15:00
9:35 PM,91.4,55.4,29,29.90,7.0,SE,4.6,-,N/A,,Clear,130,2013-08-31 02:35:00
9:55 PM,91.4,55.4,29,29.90,10.0,SE,5.8,-,N/A,,Clear,130,2013-08-31 02:55:00
10:15 PM,89.6,57.2,33,29.91,10.0,ESE,4.6,-,N/A,,Clear,120,2013-08-31 03:15:00
10:35 PM,89.6,57.2,33,29.91,10.0,SSE,3.5,-,N/A,,Clear,160,2013-08-31 03:35:00
10:55 PM,87.8,59.0,38,29.90,10.0,SSE,4.6,-,N/A,,Clear,160,2013-08-31 03:55:00
11:15 PM,87.8,59.0,38,29.90,10.0,SSE,3.5,-,N/A,,Clear,160,2013-08-31 04:15:00
11:35 PM,87.8,59.0,38,29.90,10.0,South,4.6,-,N/A,,Clear,170,2013-08-31 04:35:00
11:55 PM,87.8,59.0,38,29.90,10.0,South,4.6,-,N/A,,Clear,170,2013-08-31 04:55:00